Location: Ernsee
(50.8780°N, 12.0389°E)
Time: 19:41:39
(UTC+00:00)

STARLINK-24 - Pass Details

Date: 20 January 2020
Orbit: 528 x 529 km, 53.0° (Epoch: 21 February)

Event Time Altitude Azimuth Distance (km) Brightness Sun altitude
Exits shadow 05:50:32 - 231° (SW) 2,605 6.7 -11.3°
Reaches altitude 10° 05:52:38 10° 227° (SW) 1,771 5.9 -11.0°
Maximum altitude 05:56:32 52° 151° (SSE) 661 4.3 -10.4°
Drops below altitude 10° 06:00:28 10° 74° (ENE) 1,780 7.1 -9.8°
Sets 06:02:43 0° 70° (ENE) 2,673 8.0 -9.5°
